GFSNE_prec_prec_162.txt.gz
QPF
0.01 0.00 0.00 0.00 0.00 0.00 0.01 0.02 0.05 0.10 0.07 0.06 0.05 0.01 0.00 0.00 0.01 0.00 0.00 0.00 0.00 0.00 0.00 0.00 0.00 0.00 0.00 0.00 0.00 0.01 0.01 0.00 0.00 0.00 0.00 0.00 0.00 0.00
0.00 0.01 0.00 0.00 0.01 0.00 0.01 0.01 0.03 0.10 0.18 0.08 0.06 0.04 0.00 0.00 0.01 0.01 0.01 0.01 0.01 0.00 0.00 0.00 0.00 0.00 0.00 0.00 0.00 0.00 0.00 0.01 0.00 0.00 0.00 0.00 0.00 0.00
0.00 0.00 0.00 0.00 0.01 0.01 0.02 0.02 0.01 0.04 0.20 0.27 0.18 0.14 0.06 0.00 0.00 0.00 0.02 0.01 0.01 0.01 0.00 0.00 0.00 0.00 0.00 0.00 0.00 0.00 0.00 0.00 0.00 0.00 0.00 0.00 0.00 0.00
0.00 0.00 0.00 0.01 0.01 0.01 0.03 0.03 0.02 0.02 0.13 0.15 0.19 0.23 0.23 0.01 0.00 0.00 0.00 0.01 0.00 0.00 0.00 0.00 0.00 0.00 0.00 0.00 0.00 0.00 0.00 0.00 0.00 0.00 0.00 0.00 0.00 0.01
0.00 0.00 0.00 0.00 0.02 0.02 0.03 0.04 0.04 0.03 0.06 0.15 0.24 0.22 0.20 0.05 0.01 0.00 0.00 0.00 0.00 0.01 0.00 0.00 0.00 0.00 0.00 0.00 0.00 0.00 0.00 0.00 0.00 0.00 0.00 0.00 0.01 0.01
0.00 0.00 0.00 0.01 0.03 0.08 0.07 0.07 0.06 0.05 0.04 0.09 0.21 0.36 0.38 0.24 0.05 0.00 0.00 0.00 0.00 0.00 0.01 0.01 0.00 0.00 0.00 0.00 0.00 0.00 0.00 0.00 0.00 0.00 0.00 0.00 0.00 0.00
0.00 0.01 0.01 0.00 0.02 0.06 0.18 0.21 0.12 0.13 0.09 0.06 0.15 0.23 0.32 0.34 0.07 0.01 0.01 0.00 0.00 0.00 0.00 0.00 0.00 0.00 0.00 0.01 0.01 0.00 0.00 0.00 0.00 0.00 0.00 0.00 0.00 0.00
0.00 0.02 0.03 0.01 0.01 0.01 0.02 0.08 0.17 0.19 0.16 0.07 0.05 0.10 0.15 0.14 0.06 0.02 0.01 0.01 0.00 0.00 0.00 0.00 0.00 0.00 0.00 0.00 0.00 0.00 0.00 0.00 0.00 0.00 0.00 0.00 0.00 0.00
0.00 0.01 0.03 0.01 0.01 0.00 0.01 0.00 0.01 0.03 0.11 0.05 0.05 0.03 0.03 0.05 0.02 0.01 0.01 0.00 0.00 0.00 0.00 0.00 0.00 0.00 0.00 0.01 0.01 0.00 0.01 0.01 0.01 0.01 0.00 0.00 0.00 0.00
0.00 0.01 0.01 0.02 0.03 0.03 0.01 0.00 0.00 0.00 0.00 0.01 0.03 0.03 0.03 0.03 0.00 0.01 0.04 0.05 0.01 0.00 0.00 0.00 0.01 0.01 0.01 0.01 0.01 0.01 0.00 0.00 0.01 0.03 0.09 0.10 0.07 0.05
0.00 0.01 0.01 0.02 0.03 0.05 0.04 0.00 0.00 0.00 0.00 0.00 0.01 0.04 0.05 0.07 0.03 0.03 0.02 0.03 0.03 0.02 0.02 0.00 0.01 0.00 0.01 0.01 0.01 0.01 0.01 0.01 0.02 0.07 0.09 0.08 0.07 0.06
0.00 0.01 0.02 0.03 0.03 0.02 0.04 0.01 0.01 0.00 0.00 0.00 0.00 0.02 0.06 0.08 0.06 0.04 0.02 0.04 0.03 0.01 0.01 0.01 0.00 0.00 0.01 0.01 0.00 0.00 0.00 0.00 0.00 0.02 0.04 0.04 0.05 0.03
0.01 0.01 0.02 0.06 0.07 0.06 0.05 0.03 0.03 0.02 0.01 0.01 0.00 0.01 0.02 0.08 0.09 0.07 0.02 0.01 0.01 0.01 0.01 0.00 0.00 0.00 0.00 0.00 0.00 0.00 0.01 0.02 0.02 0.05 0.08 0.09 0.08 0.06
0.04 0.04 0.04 0.06 0.09 0.07 0.04 0.02 0.01 0.04 0.03 0.01 0.00 0.00 0.01 0.03 0.13 0.11 0.09 0.03 0.01 0.01 0.02 0.02 0.01 0.00 0.00 0.00 0.00 0.01 0.05 0.06 0.06 0.09 0.09 0.08 0.07 0.05
0.08 0.08 0.05 0.05 0.08 0.07 0.05 0.02 0.01 0.01 0.02 0.03 0.00 0.00 0.00 0.00 0.02 0.13 0.17 0.06 0.03 0.03 0.02 0.01 0.01 0.01 0.01 0.00 0.00 0.03 0.07 0.08 0.10 0.09 0.11 0.09 0.08 0.06
0.06 0.09 0.12 0.12 0.11 0.09 0.06 0.03 0.01 0.04 0.06 0.03 0.00 0.00 0.00 0.00 0.01 0.02 0.08 0.23 0.19 0.13 0.09 0.07 0.03 0.01 0.01 0.00 0.00 0.01 0.02 0.04 0.06 0.08 0.09 0.08 0.07 0.05
0.08 0.08 0.08 0.13 0.17 0.16 0.14 0.08 0.05 0.05 0.06 0.04 0.04 0.01 0.00 0.00 0.00 0.01 0.02 0.06 0.20 0.24 0.21 0.18 0.12 0.05 0.02 0.02 0.00 0.01 0.03 0.05 0.06 0.06 0.05 0.06 0.06 0.03
0.06 0.08 0.09 0.12 0.21 0.27 0.28 0.19 0.13 0.12 0.12 0.09 0.06 0.05 0.04 0.02 0.01 0.00 0.01 0.04 0.10 0.25 0.22 0.24 0.27 0.21 0.16 0.10 0.06 0.03 0.04 0.04 0.05 0.05 0.04 0.03 0.05 0.04
0.03 0.07 0.10 0.11 0.15 0.25 0.39 0.40 0.30 0.26 0.24 0.21 0.15 0.13 0.12 0.09 0.11 0.04 0.02 0.02 0.11 0.13 0.17 0.23 0.24 0.28 0.33 0.30 0.19 0.11 0.06 0.07 0.09 0.10 0.08 0.05 0.04 0.05
0.02 0.05 0.09 0.11 0.13 0.16 0.25 0.36 0.36 0.36 0.37 0.34 0.29 0.24 0.23 0.26 0.16 0.08 0.06 0.04 0.07 0.10 0.13 0.12 0.15 0.19 0.21 0.21 0.20 0.22 0.14 0.12 0.11 0.12 0.11 0.08 0.06 0.04
0.00 0.02 0.05 0.08 0.10 0.12 0.14 0.18 0.26 0.27 0.32 0.38 0.36 0.33 0.30 0.33 0.36 0.32 0.23 0.22 0.16 0.13 0.12 0.17 0.24 0.22 0.17 0.15 0.17 0.26 0.31 0.24 0.15 0.11 0.10 0.07 0.05 0.03
0.00 0.00 0.01 0.03 0.05 0.07 0.10 0.11 0.14 0.19 0.22 0.26 0.30 0.31 0.32 0.31 0.34 0.38 0.38 0.35 0.32 0.29 0.27 0.27 0.29 0.30 0.29 0.24 0.21 0.19 0.20 0.21 0.19 0.14 0.08 0.04 0.04 0.03
0.00 0.01 0.01 0.01 0.02 0.03 0.04 0.06 0.08 0.11 0.15 0.19 0.23 0.26 0.27 0.27 0.29 0.30 0.32 0.35 0.34 0.33 0.33 0.34 0.33 0.29 0.26 0.22 0.19 0.20 0.18 0.17 0.14 0.12 0.10 0.04 0.01 0.00

GFSNE_prec_prec_165.txt.gz
QPF
0.00 0.00 0.00 0.00 0.00 0.01 0.02 0.03 0.03 0.01 0.00 0.01 0.04 0.09 0.10 0.10 0.04 0.01 0.02 0.03 0.12 0.08 0.04 0.01 0.00 0.00 0.00 0.00 0.00 0.00 0.01 0.00 0.00 0.00 0.00 0.00 0.00 0.00
0.00 0.00 0.00 0.00 0.00 0.00 0.01 0.02 0.03 0.03 0.01 0.00 0.01 0.06 0.11 0.12 0.07 0.01 0.01 0.01 0.02 0.05 0.03 0.04 0.00 0.00 0.00 0.00 0.00 0.00 0.00 0.02 0.02 0.00 0.00 0.00 0.00 0.00
0.00 0.00 0.00 0.00 0.00 0.00 0.00 0.01 0.01 0.02 0.02 0.00 0.00 0.02 0.14 0.12 0.12 0.15 0.05 0.01 0.00 0.03 0.02 0.01 0.00 0.00 0.00 0.00 0.00 0.00 0.00 0.00 0.01 0.04 0.02 0.00 0.00 0.00
0.00 0.00 0.00 0.00 0.00 0.00 0.00 0.00 0.01 0.01 0.03 0.01 0.00 0.00 0.10 0.27 0.24 0.18 0.08 0.02 0.00 0.01 0.01 0.00 0.00 0.00 0.00 0.00 0.00 0.00 0.00 0.00 0.00 0.00 0.02 0.02 0.01 0.00
0.00 0.00 0.00 0.00 0.00 0.00 0.00 0.00 0.00 0.01 0.03 0.04 0.01 0.00 0.07 0.31 0.45 0.59 0.49 0.15 0.02 0.01 0.01 0.01 0.00 0.00 0.00 0.00 0.00 0.00 0.00 0.00 0.00 0.00 0.00 0.01 0.00 0.00
0.00 0.00 0.00 0.00 0.00 0.00 0.00 0.00 0.00 0.02 0.02 0.04 0.02 0.02 0.01 0.11 0.45 0.59 0.57 0.22 0.06 0.01 0.01 0.01 0.01 0.01 0.01 0.00 0.00 0.00 0.00 0.00 0.00 0.00 0.00 0.01 0.01 0.01
0.00 0.00 0.00 0.00 0.00 0.00 0.00 0.00 0.00 0.01 0.03 0.03 0.03 0.04 0.02 0.14 0.41 0.39 0.24 0.13 0.07 0.02 0.03 0.02 0.01 0.00 0.01 0.01 0.01 0.00 0.00 0.00 0.00 0.00 0.01 0.01 0.02 0.02
0.00 0.00 0.00 0.00 0.00 0.00 0.01 0.01 0.02 0.03 0.09 0.12 0.06 0.05 0.03 0.04 0.31 0.59 0.56 0.25 0.15 0.05 0.02 0.02 0.01 0.00 0.00 0.00 0.01 0.01 0.00 0.00 0.00 0.00 0.01 0.01 0.01 0.01
0.00 0.00 0.00 0.00 0.00 0.00 0.00 0.00 0.00 0.01 0.09 0.27 0.24 0.14 0.06 0.03 0.08 0.22 0.48 0.57 0.25 0.10 0.02 0.02 0.02 0.03 0.01 0.01 0.02 0.01 0.01 0.01 0.01 0.00 0.00 0.01 0.01 0.01
0.00 0.00 0.00 0.00 0.00 0.01 0.01 0.00 0.00 0.00 0.00 0.06 0.16 0.16 0.16 0.10 0.09 0.05 0.10 0.23 0.31 0.14 0.02 0.01 0.02 0.03 0.02 0.01 0.03 0.02 0.02 0.02 0.01 0.01 0.01 0.01 0.01 0.01
0.00 0.00 0.00 0.00 0.00 0.00 0.02 0.02 0.00 0.00 0.00 0.00 0.01 0.05 0.15 0.27 0.25 0.16 0.09 0.08 0.13 0.14 0.03 0.01 0.00 0.01 0.02 0.02 0.01 0.02 0.02 0.03 0.03 0.02 0.01 0.01 0.01 0.01
0.00 0.00 0.00 0.00 0.00 0.00 0.02 0.03 0.03 0.00 0.00 0.00 0.00 0.00 0.01 0.06 0.26 0.24 0.09 0.04 0.03 0.02 0.02 0.03 0.02 0.01 0.01 0.02 0.01 0.00 0.01 0.02 0.02 0.02 0.02 0.02 0.02 0.01
0.01 0.01 0.01 0.00 0.00 0.01 0.01 0.02 0.02 0.00 0.00 0.01 0.00 0.00 0.00 0.00 0.05 0.16 0.22 0.04 0.00 0.00 0.01 0.01 0.01 0.02 0.01 0.00 0.00 0.00 0.00 0.00 0.00 0.01 0.01 0.01 0.02 0.01
0.03 0.03 0.03 0.02 0.01 0.01 0.02 0.02 0.02 0.01 0.00 0.01 0.02 0.01 0.00 0.00 0.00 0.08 0.24 0.31 0.06 0.01 0.01 0.02 0.02 0.01 0.01 0.00 0.00 0.00 0.00 0.00 0.00 0.00 0.00 0.01 0.01 0.03
0.05 0.06 0.04 0.03 0.03 0.02 0.02 0.04 0.04 0.05 0.05 0.04 0.03 0.02 0.00 0.00 0.00 0.02 0.15 0.39 0.35 0.03 0.00 0.01 0.01 0.00 0.01 0.01 0.00 0.00 0.01 0.00 0.00 0.00 0.00 0.00 0.00 0.00
0.02 0.05 0.07 0.07 0.07 0.06 0.04 0.04 0.09 0.14 0.15 0.17 0.16 0.09 0.04 0.01 0.00 0.00 0.03 0.15 0.43 0.39 0.05 0.01 0.01 0.01 0.01 0.00 0.00 0.00 0.00 0.00 0.00 0.00 0.00 0.00 0.00 0.01
0.02 0.02 0.03 0.04 0.03 0.03 0.03 0.05 0.11 0.16 0.15 0.14 0.15 0.14 0.11 0.02 0.00 0.00 0.00 0.05 0.18 0.34 0.32 0.13 0.05 0.03 0.01 0.02 0.01 0.00 0.00 0.00 0.00 0.00 0.00 0.00 0.01 0.02
0.01 0.02 0.03 0.05 0.07 0.08 0.09 0.11 0.12 0.16 0.18 0.15 0.11 0.09 0.10 0.11 0.04 0.00 0.00 0.02 0.05 0.15 0.25 0.35 0.23 0.12 0.12 0.10 0.10 0.06 0.02 0.02 0.02 0.01 0.00 0.00 0.01 0.03
0.01 0.02 0.03 0.05 0.07 0.09 0.12 0.15 0.18 0.18 0.16 0.15 0.12 0.09 0.08 0.07 0.08 0.02 0.03 0.02 0.03 0.06 0.10 0.12 0.20 0.23 0.18 0.22 0.30 0.18 0.13 0.12 0.09 0.07 0.05 0.03 0.02 0.04
0.00 0.01 0.03 0.05 0.07 0.09 0.12 0.15 0.17 0.16 0.13 0.12 0.12 0.08 0.07 0.07 0.04 0.02 0.03 0.05 0.04 0.04 0.07 0.10 0.11 0.11 0.15 0.17 0.24 0.39 0.41 0.38 0.29 0.25 0.19 0.13 0.11 0.12
0.00 0.00 0.01 0.03 0.05 0.07 0.10 0.13 0.16 0.19 0.18 0.15 0.14 0.14 0.10 0.08 0.07 0.07 0.06 0.10 0.09 0.06 0.07 0.07 0.08 0.09 0.08 0.08 0.14 0.27 0.42 0.45 0.41 0.32 0.27 0.23 0.24 0.23
0.01 0.00 0.01 0.01 0.02 0.04 0.07 0.09 0.11 0.14 0.16 0.17 0.17 0.18 0.18 0.14 0.12 0.10 0.10 0.09 0.08 0.05 0.07 0.08 0.08 0.06 0.05 0.08 0.16 0.20 0.25 0.32 0.34 0.33 0.31 0.25 0.21 0.17
0.01 0.01 0.01 0.01 0.01 0.02 0.03 0.05 0.07 0.10 0.13 0.14 0.17 0.19 0.20 0.20 0.18 0.17 0.17 0.17 0.16 0.14 0.15 0.15 0.14 0.11 0.11 0.12 0.15 0.17 0.20 0.24 0.28 0.27 0.28 0.20 0.15 0.13

GFSNE_prec_prec_168.txt.gz
QPF
0.00 0.00 0.00 0.00 0.00 0.00 0.00 0.01 0.01 0.00 0.00 0.00 0.00 0.00 0.00 0.03 0.04 0.07 0.20 0.19 0.22 0.22 0.09 0.03 0.01 0.02 0.02 0.01 0.00 0.00 0.00 0.00 0.00 0.00 0.00 0.00 0.00 0.00
0.00 0.00 0.00 0.00 0.00 0.00 0.00 0.00 0.00 0.01 0.00 0.00 0.00 0.00 0.00 0.00 0.02 0.03 0.10 0.20 0.14 0.25 0.17 0.06 0.03 0.02 0.02 0.02 0.01 0.00 0.00 0.00 0.00 0.00 0.00 0.00 0.00 0.00
0.00 0.00 0.00 0.00 0.00 0.00 0.00 0.00 0.00 0.00 0.00 0.00 0.00 0.00 0.00 0.00 0.01 0.05 0.16 0.21 0.19 0.16 0.23 0.15 0.06 0.02 0.02 0.02 0.02 0.00 0.00 0.00 0.00 0.00 0.01 0.00 0.00 0.00
0.00 0.00 0.00 0.00 0.00 0.00 0.00 0.00 0.00 0.00 0.00 0.00 0.00 0.00 0.00 0.00 0.01 0.03 0.26 0.34 0.21 0.23 0.16 0.17 0.10 0.05 0.02 0.02 0.02 0.02 0.00 0.00 0.00 0.00 0.00 0.02 0.02 0.00
0.00 0.00 0.00 0.00 0.00 0.00 0.00 0.00 0.00 0.00 0.00 0.00 0.00 0.00 0.01 0.01 0.02 0.01 0.03 0.27 0.24 0.18 0.22 0.21 0.14 0.08 0.06 0.04 0.01 0.01 0.03 0.01 0.00 0.00 0.00 0.00 0.03 0.04
0.00 0.00 0.00 0.00 0.00 0.01 0.01 0.00 0.00 0.00 0.00 0.00 0.00 0.00 0.00 0.01 0.03 0.02 0.02 0.44 0.67 0.40 0.35 0.16 0.12 0.10 0.09 0.06 0.05 0.01 0.02 0.04 0.01 0.00 0.00 0.00 0.00 0.00
0.00 0.00 0.00 0.00 0.00 0.00 0.01 0.01 0.01 0.01 0.00 0.00 0.00 0.00 0.00 0.01 0.02 0.03 0.01 0.03 0.23 0.51 0.45 0.50 0.40 0.10 0.07 0.08 0.06 0.05 0.06 0.04 0.02 0.01 0.00 0.00 0.00 0.00
0.00 0.00 0.00 0.00 0.00 0.00 0.01 0.01 0.01 0.01 0.01 0.00 0.00 0.00 0.00 0.01 0.02 0.03 0.03 0.02 0.05 0.09 0.19 0.36 0.47 0.26 0.05 0.03 0.04 0.02 0.02 0.01 0.01 0.01 0.01 0.01 0.01 0.01
0.00 0.00 0.00 0.00 0.00 0.01 0.01 0.00 0.00 0.00 0.00 0.00 0.00 0.00 0.00 0.00 0.02 0.04 0.05 0.03 0.04 0.06 0.09 0.11 0.18 0.18 0.06 0.06 0.04 0.02 0.01 0.01 0.01 0.01 0.01 0.02 0.02 0.03
0.00 0.00 0.00 0.00 0.00 0.01 0.00 0.00 0.00 0.00 0.00 0.00 0.00 0.00 0.00 0.00 0.01 0.03 0.04 0.10 0.16 0.23 0.28 0.22 0.11 0.10 0.05 0.05 0.08 0.03 0.02 0.02 0.02 0.02 0.02 0.02 0.02 0.03
0.00 0.00 0.00 0.00 0.00 0.00 0.01 0.01 0.00 0.00 0.00 0.00 0.00 0.00 0.00 0.00 0.01 0.07 0.05 0.07 0.18 0.21 0.26 0.35 0.27 0.14 0.09 0.05 0.04 0.04 0.02 0.02 0.04 0.04 0.04 0.03 0.03 0.02
0.00 0.00 0.00 0.00 0.01 0.01 0.02 0.02 0.01 0.00 0.00 0.00 0.00 0.00 0.00 0.00 0.04 0.20 0.22 0.11 0.06 0.13 0.15 0.17 0.31 0.28 0.16 0.12 0.05 0.02 0.02 0.03 0.04 0.05 0.05 0.05 0.03 0.01
0.01 0.00 0.00 0.01 0.01 0.01 0.01 0.02 0.03 0.01 0.00 0.00 0.00 0.00 0.00 0.00 0.01 0.14 0.30 0.30 0.16 0.05 0.02 0.06 0.08 0.17 0.23 0.11 0.05 0.04 0.02 0.01 0.02 0.03 0.05 0.06 0.04 0.02
0.01 0.01 0.02 0.02 0.01 0.00 0.01 0.01 0.00 0.00 0.00 0.00 0.00 0.00 0.00 0.00 0.00 0.02 0.09 0.24 0.34 0.17 0.02 0.01 0.03 0.03 0.07 0.12 0.02 0.02 0.02 0.01 0.00 0.01 0.01 0.02 0.03 0.03
0.00 0.01 0.01 0.01 0.02 0.02 0.02 0.01 0.01 0.01 0.01 0.01 0.01 0.00 0.00 0.00 0.01 0.02 0.01 0.08 0.37 0.46 0.17 0.03 0.01 0.03 0.04 0.04 0.03 0.02 0.02 0.01 0.00 0.01 0.01 0.01 0.00 0.00
0.00 0.00 0.00 0.01 0.02 0.03 0.03 0.02 0.01 0.02 0.04 0.05 0.05 0.04 0.02 0.02 0.01 0.01 0.01 0.01 0.12 0.55 0.46 0.09 0.01 0.01 0.02 0.03 0.03 0.03 0.02 0.01 0.00 0.00 0.00 0.00 0.00 0.00
0.00 0.00 0.00 0.00 0.01 0.01 0.01 0.01 0.02 0.03 0.06 0.09 0.14 0.17 0.16 0.12 0.06 0.02 0.02 0.02 0.03 0.17 0.62 0.30 0.06 0.04 0.02 0.02 0.01 0.01 0.00 0.00 0.00 0.00 0.00 0.00 0.00 0.00
0.00 0.00 0.00 0.00 0.01 0.02 0.03 0.03 0.02 0.06 0.11 0.16 0.19 0.24 0.28 0.28 0.27 0.19 0.09 0.04 0.02 0.04 0.23 0.48 0.30 0.14 0.11 0.08 0.10 0.01 0.00 0.00 0.00 0.00 0.00 0.00 0.00 0.00
0.00 0.00 0.00 0.01 0.01 0.02 0.04 0.05 0.06 0.09 0.14 0.17 0.20 0.19 0.24 0.27 0.33 0.29 0.24 0.16 0.07 0.04 0.10 0.24 0.45 0.52 0.27 0.09 0.08 0.06 0.01 0.02 0.02 0.02 0.03 0.02 0.03 0.02
0.00 0.00 0.00 0.00 0.01 0.02 0.04 0.06 0.07 0.08 0.12 0.15 0.19 0.18 0.16 0.19 0.22 0.24 0.15 0.14 0.16 0.06 0.07 0.17 0.25 0.28 0.47 0.30 0.14 0.07 0.05 0.04 0.06 0.08 0.12 0.14 0.17 0.23
0.00 0.00 0.00 0.00 0.01 0.01 0.03 0.04 0.06 0.09 0.12 0.13 0.12 0.16 0.14 0.11 0.12 0.14 0.18 0.14 0.10 0.05 0.06 0.09 0.16 0.18 0.15 0.22 0.35 0.34 0.26 0.17 0.13 0.10 0.11 0.17 0.24 0.29
0.00 0.00 0.00 0.00 0.00 0.01 0.01 0.02 0.04 0.05 0.08 0.10 0.10 0.10 0.12 0.11 0.11 0.12 0.13 0.12 0.06 0.04 0.05 0.06 0.09 0.11 0.09 0.10 0.16 0.27 0.32 0.34 0.24 0.15 0.13 0.13 0.16 0.18
0.01 0.01 0.01 0.00 0.00 0.01 0.00 0.01 0.02 0.03 0.05 0.08 0.08 0.09 0.09 0.10 0.10 0.09 0.09 0.08 0.06 0.06 0.06 0.06 0.07 0.08 0.08 0.08 0.12 0.15 0.19 0.22 0.23 0.23 0.27 0.20 0.10 0.07

GFSNE_prec_prec_174.txt.gz
QPF
0.00 0.00 0.00 0.00 0.00 0.00 0.00 0.00 0.01 0.01 0.00 0.00 0.00 0.00 0.00 0.00 0.00 0.00 0.00 0.00 0.00 0.00 0.00 0.01 0.02 0.09 0.31 0.59 0.77 0.58 0.10 0.02 0.00 0.00 0.00 0.00 0.00 0.00
0.00 0.00 0.00 0.00 0.00 0.00 0.00 0.00 0.00 0.00 0.00 0.00 0.00 0.00 0.00 0.00 0.00 0.00 0.00 0.00 0.00 0.00 0.00 0.02 0.07 0.11 0.37 0.28 0.38 0.47 0.49 0.14 0.01 0.00 0.00 0.00 0.00 0.00
0.00 0.00 0.00 0.00 0.00 0.00 0.00 0.00 0.00 0.00 0.01 0.00 0.00 0.00 0.00 0.00 0.00 0.00 0.00 0.00 0.00 0.00 0.00 0.00 0.04 0.11 0.41 0.73 0.39 0.22 0.30 0.31 0.06 0.02 0.01 0.00 0.00 0.00
0.00 0.00 0.00 0.00 0.00 0.00 0.00 0.01 0.01 0.00 0.01 0.01 0.00 0.00 0.00 0.00 0.00 0.00 0.00 0.00 0.00 0.00 0.00 0.00 0.00 0.01 0.14 0.75 0.84 0.45 0.25 0.28 0.23 0.03 0.02 0.01 0.01 0.00
0.00 0.00 0.00 0.00 0.00 0.00 0.01 0.01 0.01 0.01 0.01 0.01 0.00 0.00 0.00 0.00 0.00 0.00 0.00 0.00 0.00 0.00 0.00 0.00 0.00 0.00 0.02 0.11 0.43 0.72 0.45 0.32 0.25 0.11 0.02 0.01 0.01 0.00
0.00 0.00 0.00 0.00 0.01 0.02 0.01 0.01 0.01 0.00 0.00 0.00 0.00 0.00 0.00 0.00 0.00 0.00 0.00 0.00 0.00 0.00 0.00 0.00 0.00 0.00 0.00 0.05 0.09 0.34 0.83 0.50 0.40 0.20 0.05 0.03 0.01 0.00
0.00 0.00 0.00 0.00 0.01 0.00 0.01 0.01 0.00 0.01 0.00 0.00 0.00 0.00 0.00 0.00 0.00 0.00 0.00 0.00 0.00 0.00 0.00 0.00 0.00 0.00 0.00 0.01 0.10 0.15 0.39 0.73 0.46 0.30 0.07 0.03 0.03 0.02
0.00 0.00 0.00 0.00 0.00 0.00 0.00 0.00 0.00 0.01 0.02 0.01 0.01 0.01 0.01 0.00 0.00 0.00 0.01 0.01 0.00 0.00 0.00 0.00 0.01 0.02 0.00 0.00 0.02 0.11 0.15 0.56 0.55 0.54 0.31 0.06 0.04 0.04
0.00 0.00 0.00 0.00 0.00 0.01 0.01 0.00 0.00 0.00 0.00 0.01 0.02 0.01 0.01 0.01 0.01 0.01 0.00 0.00 0.00 0.00 0.00 0.00 0.00 0.01 0.01 0.02 0.02 0.01 0.09 0.13 0.45 0.40 0.52 0.29 0.07 0.06
0.00 0.00 0.00 0.00 0.00 0.01 0.01 0.00 0.00 0.00 0.00 0.00 0.01 0.00 0.00 0.00 0.01 0.01 0.01 0.01 0.00 0.00 0.00 0.00 0.00 0.00 0.00 0.00 0.02 0.02 0.01 0.09 0.18 0.30 0.22 0.43 0.29 0.08
0.00 0.00 0.00 0.00 0.00 0.00 0.01 0.00 0.00 0.00 0.00 0.00 0.00 0.00 0.00 0.00 0.00 0.01 0.01 0.01 0.01 0.00 0.00 0.00 0.00 0.00 0.00 0.00 0.00 0.01 0.02 0.01 0.08 0.31 0.28 0.18 0.32 0.28
0.00 0.00 0.00 0.00 0.00 0.00 0.00 0.00 0.01 0.00 0.00 0.00 0.00 0.00 0.00 0.00 0.00 0.00 0.01 0.03 0.02 0.01 0.00 0.00 0.00 0.00 0.00 0.00 0.00 0.00 0.01 0.02 0.03 0.16 0.34 0.21 0.17 0.41
0.00 0.00 0.00 0.00 0.00 0.00 0.00 0.01 0.02 0.00 0.00 0.00 0.00 0.00 0.00 0.00 0.00 0.00 0.00 0.02 0.03 0.02 0.00 0.00 0.00 0.01 0.01 0.01 0.00 0.00 0.00 0.00 0.01 0.05 0.16 0.26 0.19 0.23
0.00 0.00 0.00 0.00 0.00 0.00 0.00 0.00 0.00 0.00 0.00 0.00 0.00 0.00 0.00 0.00 0.00 0.00 0.00 0.00 0.01 0.02 0.00 0.00 0.01 0.00 0.01 0.01 0.00 0.00 0.00 0.00 0.00 0.01 0.04 0.13 0.22 0.31
0.00 0.00 0.00 0.00 0.00 0.00 0.00 0.00 0.00 0.00 0.00 0.00 0.00 0.00 0.00 0.00 0.00 0.00 0.00 0.00 0.00 0.00 0.00 0.00 0.00 0.00 0.01 0.01 0.00 0.00 0.00 0.00 0.00 0.02 0.03 0.07 0.13 0.15
0.00 0.00 0.00 0.00 0.00 0.00 0.00 0.00 0.00 0.00 0.00 0.01 0.01 0.00 0.00 0.00 0.00 0.00 0.02 0.01 0.02 0.00 0.00 0.00 0.00 0.00 0.00 0.00 0.00 0.00 0.00 0.00 0.01 0.00 0.03 0.06 0.12 0.17
0.00 0.00 0.00 0.00 0.00 0.00 0.00 0.00 0.00 0.00 0.00 0.00 0.00 0.01 0.00 0.00 0.00 0.00 0.03 0.03 0.03 0.01 0.01 0.00 0.00 0.00 0.00 0.02 0.01 0.02 0.01 0.00 0.00 0.01 0.01 0.02 0.09 0.13
0.00 0.00 0.00 0.00 0.00 0.00 0.00 0.00 0.00 0.00 0.00 0.01 0.01 0.01 0.02 0.02 0.03 0.02 0.03 0.05 0.06 0.04 0.02 0.01 0.02 0.02 0.03 0.05 0.06 0.01 0.01 0.01 0.00 0.01 0.02 0.02 0.01 0.08
0.00 0.00 0.00 0.00 0.00 0.00 0.00 0.00 0.00 0.00 0.00 0.01 0.01 0.02 0.03 0.04 0.05 0.06 0.07 0.07 0.07 0.06 0.04 0.04 0.02 0.02 0.02 0.02 0.02 0.02 0.00 0.01 0.02 0.03 0.04 0.03 0.02 0.01
0.00 0.00 0.00 0.00 0.00 0.00 0.00 0.00 0.00 0.00 0.00 0.00 0.01 0.02 0.03 0.05 0.06 0.08 0.09 0.11 0.12 0.12 0.11 0.10 0.12 0.10 0.04 0.02 0.02 0.01 0.03 0.03 0.07 0.06 0.06 0.06 0.07 0.11
0.00 0.00 0.00 0.00 0.00 0.00 0.00 0.00 0.00 0.00 0.00 0.00 0.00 0.01 0.03 0.05 0.06 0.07 0.08 0.09 0.11 0.13 0.15 0.15 0.15 0.23 0.20 0.14 0.16 0.16 0.10 0.06 0.13 0.18 0.11 0.05 0.05 0.06
0.00 0.00 0.00 0.00 0.01 0.00 0.00 0.00 0.00 0.00 0.00 0.00 0.00 0.01 0.02 0.03 0.06 0.08 0.08 0.10 0.11 0.13 0.13 0.13 0.16 0.18 0.18 0.18 0.18 0.23 0.24 0.20 0.17 0.25 0.35 0.25 0.11 0.06
0.00 0.00 0.00 0.00 0.00 0.00 0.00 0.00 0.00 0.00 0.00 0.00 0.00 0.00 0.01 0.03 0.04 0.05 0.07 0.09 0.10 0.12 0.13 0.11 0.11 0.14 0.16 0.14 0.17 0.21 0.24 0.26 0.23 0.23 0.27 0.37 0.31 0.12